TimeCEST,TemperatureF,Dew PointF,Humidity,Sea Level PressureIn,VisibilityMPH,Wind Direction,Wind SpeedMPH,Gust SpeedMPH,PrecipitationIn,Events,Conditions,WindDirDegrees,DateUTC
12:55 AM,59.0,50.0,72,29.83,-9999.0,ENE,12.7,-,N/A,,Clear,70,2012-10-10 22:55:00
1:55 AM,59.0,50.0,72,29.83,-9999.0,ENE,5.8,-,N/A,,Clear,70,2012-10-10 23:55:00
2:00 AM,60,50,62,29.85,6,ENE,5.8,,,,Partly Cloudy,70,2012-10-11 00:00:00
2:55 AM,59.0,48.2,67,29.83,-9999.0,ENE,18.4,35.7,N/A,,Clear,70,2012-10-11 00:55:00
3:55 AM,59.0,48.2,67,29.83,-9999.0,ENE,18.4,36.8,N/A,,Clear,60,2012-10-11 01:55:00
4:55 AM,57.2,48.2,72,29.83,-9999.0,ENE,18.4,35.7,N/A,,Clear,60,2012-10-11 02:55:00
5:55 AM,57.2,44.6,63,29.83,-9999.0,ENE,15.0,31.1,N/A,,Clear,60,2012-10-11 03:55:00
6:55 AM,57.2,44.6,63,29.83,-9999.0,NE,13.8,29.9,N/A,,Clear,50,2012-10-11 04:55:00
7:55 AM,55.4,44.6,67,29.83,-9999.0,ENE,21.9,40.3,N/A,,Clear,60,2012-10-11 05:55:00
8:00 AM,56,45,58,29.86,12,ENE,21.9,,,,,60,2012-10-11 06:00:00
8:55 AM,57.2,46.4,67,29.86,-9999.0,ENE,17.3,34.5,N/A,,Clear,70,2012-10-11 06:55:00
9:55 AM,60.8,44.6,55,29.86,-9999.0,ENE,19.6,40.3,N/A,,Clear,70,2012-10-11 07:55:00
10:55 AM,62.6,46.4,55,29.89,-9999.0,ENE,17.3,35.7,N/A,,Clear,60,2012-10-11 08:55:00
11:55 AM,62.6,44.6,52,29.89,6.2,ENE,15.0,28.8,N/A,,Scattered Clouds,70,2012-10-11 09:55:00
12:55 PM,62.6,46.4,55,29.89,6.2,ENE,15.0,27.6,N/A,,Scattered Clouds,60,2012-10-11 10:55:00
1:55 PM,62.6,46.4,55,29.89,6.2,ENE,15.0,31.1,N/A,,Scattered Clouds,60,2012-10-11 11:55:00
2:00 PM,63,46,43,29.89,12,ENE,15.0,,,,Overcast,60,2012-10-11 12:00:00
3:55 PM,62.6,46.4,55,29.86,6.2,ENE,12.7,27.6,N/A,,Scattered Clouds,70,2012-10-11 13:55:00
4:55 PM,62.6,48.2,59,29.86,6.2,ENE,10.4,24.2,N/A,,Scattered Clouds,70,2012-10-11 14:55:00
5:55 PM,60.8,46.4,59,29.83,6.2,ENE,13.8,25.3,N/A,,Scattered Clouds,70,2012-10-11 15:55:00
6:55 PM,60.8,48.2,63,29.83,6.2,ENE,13.8,-,N/A,,Scattered Clouds,70,2012-10-11 16:55:00
7:55 PM,60.8,48.2,63,29.86,6.2,ENE,11.5,-,N/A,,Scattered Clouds,70,2012-10-11 17:55:00
8:00 PM,60,47,53,29.86,12,ENE,11.5,,,,Partly Cloudy,70,2012-10-11 18:00:00
8:55 PM,59.0,46.4,63,29.86,6.2,ENE,11.5,-,N/A,,Scattered Clouds,70,2012-10-11 18:55:00
9:55 PM,59.0,46.4,63,29.86,6.2,ENE,12.7,-,N/A,,Scattered Clouds,70,2012-10-11 19:55:00